Location: *
(44.1392°N, 4.8079°E)
Time: 09:42:54
(UTC+00:00)

FENGYUN 1C DEB - Visible Passes

Search period start: 17 August 2022 00:00
Search period end: 27 August 2022 00:00
Orbit: 616 x 1057 km, 99.1° (Epoch: 12 August)

Date Brightness Start Highest point End Pass type
(mag) Time Alt. Az. Time Alt. Az. Time Alt. Az.
17 Aug ? 22:19:54 10° N 22:23:01 42° N 22:23:01 42° N visible
18 Aug ? 22:03:55 10° NNE 22:06:42 38° NNE 22:06:42 38° NNE visible
18 Aug ? 23:47:15 10° NW 23:48:00 10° NW 23:48:24 10° WNW visible
19 Aug ? 21:48:02 10° NNE 21:50:24 30° NE 21:50:24 30° NE visible
19 Aug ? 23:29:53 10° NNW 23:32:05 15° NW 23:32:05 15° NW visible
20 Aug ? 21:32:14 10° NNE 21:34:05 22° NE 21:34:05 22° NE visible
20 Aug ? 23:13:19 10° NNW 23:15:47 19° NW 23:15:47 19° NW visible
21 Aug ? 21:16:36 10° NE 21:17:47 16° NE 21:17:47 16° NE visible
21 Aug ? 22:56:58 10° N 22:59:28 24° NW 22:59:28 24° NW visible
22 Aug ? 21:01:09 10° NE 21:01:28 11° NE 21:01:28 11° NE visible
22 Aug ? 22:40:45 10° N 22:43:09 28° NNW 22:43:09 28° NNW visible
23 Aug ? 22:24:38 10° N 22:26:51 29° N 22:26:51 29° N visible
24 Aug ? 22:08:37 10° NNE 22:10:33 26° NNE 22:10:33 26° NNE visible
25 Aug ? 21:52:41 10° NNE 21:54:14 21° NNE 21:54:14 21° NNE visible
25 Aug ? 23:34:50 10° NNW 23:35:56 12° NW 23:35:56 12° NW visible
26 Aug ? 21:36:51 10° NNE 21:37:56 17° NE 21:37:56 17° NE visible
26 Aug ? 23:18:07 10° NNW 23:19:37 16° NW 23:19:37 16° NW visible
